Terug naar catalogus

STARLINK-30929

ActiefCommunicatieVLEO
NORAD 58386·PAYLOAD·🇺🇸 United States

Gelanceerd Nov 20, 2023 vanaf Vandenberg Space Force Base

Loading…

Volgende Passages (komende 24 uur)

TLE

VersSource: CelesTrak SupGP

Epoch: Sep 14, 2026, 20:55 UTC

1 58386C 23178N   26257.87201389  .00023736  00000+0  70098-3 0  2575
2 58386  53.1593 198.3747 0001516  96.2109 100.6195 15.34392167    11

Volg STARLINK-30929 in realtime met AllMySat

Download on the App Store